Sergeant Bluff, IA

9:14 PM CST on February 19, 2017 (GMT -0600)
Sioux Gateway

Weather History for KSUX - September, 2013

Change the Weather History Date:

Sunday, September 22, 2013

  Actual Average Record
Temperature  
Mean Temperature 68 °F 61 °F  
Max Temperature 86 °F 74 °F 95 °F (1936)
Min Temperature 50 °F 48 °F 25 °F (1995)
Degree Days  
Heating Degree Days 0 6  
Month to date heating degree days 32 73  
Since 1 July heating degree days 52 88  
Cooling Degree Days 3 2  
Month to date cooling degree days 122 74  
Year to date cooling degree days 923 851  
Growing Degree Days 18 (Base 50)    
Moisture  
Dew Point 50 °F    
Average Humidity 61    
Maximum Humidity 96    
Minimum Humidity 22    
Precipitation  
Precipitation 0.00 in 0.10 in 2.02 in (1994)
Month to date precipitation 1.17 2.21  
Year to date precipitation 21.30 22.75  
Snow  
Snow 0.00 in 0.00 in 0.00 in ()
Month to date snowfall 0.0 0.0  
Since 1 July snowfall 0.0 0.0  
Since 1 September snowfall 0.0 0.0  
Snow Depth 0.00 in    
Sea Level Pressure  
Sea Level Pressure 29.81 in    
Wind  
Wind Speed 13 mph (SSE)    
Max Wind Speed 26 mph    
Max Gust Speed 35 mph    
Visibility 10 miles    
Events      
T = Trace of Precipitation, MM = Missing Value Source: NWS Daily Summary

Daily Weather History Graph

Daily Weather History Graph

Search for Another Location

Airport or City:

Trip Planner

Search our weather history database for the weather conditions in past years. The results will help you decide how hot, cold, wet, or windy it might be!

Date:

Astronomy

Sep. 22, 2013 Rise Set
Actual Time 7:13 AM CDT 7:22 PM CDT
Civil Twilight 6:45 AM CDT 7:50 PM CDT
Nautical Twilight 6:12 AM CDT 8:23 PM CDT
Astronomical Twilight 5:38 AM CDT 8:56 PM CDT
Moon 9:08 PM CDT (9/22) 10:39 AM CDT (9/22)
Length of Visible Light 13h 05m
Length of Day
12h 09m
Waning Gibbous, 88% of the Moon is Illuminated
Sep 22
Waning Gibbous
Sep 26
Last Quarter
Oct 4
New
Oct 11
First Quarter
Oct 18
Full

Hourly Weather History & Observations

Time (CDT) Temp. Dew Point Humidity Pressure Visibility Wind Dir Wind Speed Gust Speed Precip Events Conditions
12:52 AM 53.1 °F 50.0 °F 89% 29.85 in 10.0 mi ESE 8.1 mph - N/A   Clear
1:52 AM 53.1 °F 50.0 °F 89% 29.85 in 10.0 mi ESE 9.2 mph - N/A   Clear
2:52 AM 53.1 °F 48.9 °F 86% 29.84 in 10.0 mi ESE 8.1 mph - N/A   Clear
3:52 AM 52.0 °F 48.9 °F 89% 29.84 in 10.0 mi ESE 8.1 mph - N/A   Clear
4:52 AM 52.0 °F 48.9 °F 89% 29.83 in 10.0 mi ESE 9.2 mph - N/A   Clear
5:52 AM 51.1 °F 48.9 °F 92% 29.84 in 10.0 mi ESE 8.1 mph - N/A   Clear
6:52 AM 50.0 °F 48.9 °F 96% 29.85 in 10.0 mi ESE 9.2 mph - N/A   Clear
7:52 AM 52.0 °F 50.0 °F 93% 29.86 in 10.0 mi SE 8.1 mph - N/A   Clear
8:52 AM 57.0 °F 53.1 °F 87% 29.86 in 10.0 mi SE 9.2 mph - N/A   Clear
9:52 AM 64.9 °F 55.9 °F 73% 29.86 in 10.0 mi South 5.8 mph - N/A   Clear
10:52 AM 75.9 °F 53.1 °F 45% 29.85 in 10.0 mi South 16.1 mph 23.0 mph N/A   Clear
11:52 AM 79.0 °F 53.1 °F 40% 29.83 in 10.0 mi South 17.3 mph 26.5 mph N/A   Clear
12:52 PM 82.9 °F 50.0 °F 32% 29.81 in 10.0 mi SSW 19.6 mph 27.6 mph N/A   Clear
1:52 PM 84.0 °F 48.9 °F 29% 29.79 in 10.0 mi South 20.7 mph 27.6 mph N/A   Clear
2:52 PM 84.9 °F 46.0 °F 26% 29.78 in 10.0 mi South 20.7 mph 29.9 mph N/A   Clear
3:52 PM 84.0 °F 45.0 °F 25% 29.76 in 10.0 mi South 19.6 mph 33.4 mph N/A   Clear
4:52 PM 82.9 °F 46.0 °F 27% 29.75 in 10.0 mi South 20.7 mph 29.9 mph N/A   Clear
5:52 PM 81.0 °F 46.0 °F 29% 29.75 in 10.0 mi South 17.3 mph 31.1 mph N/A   Clear
6:52 PM 75.9 °F 51.1 °F 42% 29.75 in 10.0 mi SSE 12.7 mph - N/A   Clear
7:52 PM 71.1 °F 50.0 °F 47% 29.77 in 10.0 mi SSE 11.5 mph 20.7 mph N/A   Clear
8:52 PM 68.0 °F 51.1 °F 55% 29.78 in 10.0 mi SSE 10.4 mph - N/A   Clear
9:52 PM 64.9 °F 52.0 °F 63% 29.79 in 10.0 mi SSE 10.4 mph - N/A   Clear
10:52 PM 63.0 °F 52.0 °F 67% 29.79 in 10.0 mi SSE 12.7 mph - N/A   Clear
11:52 PM 63.0 °F 53.1 °F 70% 29.81 in 10.0 mi SSE 11.5 mph - N/A   Clear